Location: Baia de Cri?
(46.1667°N, 22.7167°E)
Time: 21:52:52
(UTC+00:00)

USA 234 - Pass Details

Date: 15 January 2026
Orbit: 1102 x 1106 km, 123.0° (Epoch: 4 January)

Event Time Altitude Azimuth Distance (km) Brightness Sun altitude
Rises 05:08:22 0° 52° (NE) 3,933 6.6 -10.1°
Reaches altitude 10° 05:10:52 10° 55° (NE) 2,972 6.0 -9.7°
Maximum altitude 05:17:25 70° 138° (SE) 1,169 3.7 -8.7°
Drops below altitude 10° 05:23:57 10° 223° (SW) 2,957 5.3 -7.6°
Sets 05:26:26 0° 225° (SW) 3,912 5.9 -7.2°
